#timestamp,LO_Frequency,Hit,StdDev 
1623002415.8,286047001.1,N
1623002435.7,286046999.4,N
1623002455.5,286046999.4,N
1623002475.3,286046997.1,N
1623002495.2,286046997.8,N
1623002515.0,286046994.9,Y
1623002515.9,286046994.9,P
1623002535.7,286046998.2,N
1623002555.6,286046998.2,N
1623002575.4,286046996.5,N
1623002595.3,286046999.1,N
1623002615.1,286047001.9,N
1623002616.0,286047001.9,N
1623002635.8,286047003.5,N
1623002655.7,286047005.4,N
1623002675.5,286047004.2,N
1623002695.4,286047002.0,N
1623002715.2,286047000.1,N
1623002735.0,286046998.7,N
1623002735.9,286046998.7,N
1623002755.8,286047000.3,N
1623002775.6,286047002.2,N
1623002795.4,286047001.2,N
1623002815.3,286047001.1,N
1623002835.1,286047000.2,N
1623002855.9,286046999.9,N
1623002875.7,286047000.4,N
1623002895.5,286047002.7,N
1623002915.4,286047000.3,N
1623002935.2,286047002.2,N
1623002955.0,286047001.3,N
1623002955.9,286047001.3,N
1623002975.8,286047004.0,N
1623002995.6,286047000.1,N
1623003015.5,286046998.1,N
1623003035.3,286047001.5,N
1623003055.1,286047002.2,N
1623003075.9,286047001.9,N
1623003095.7,286047003.0,N
1623003115.6,286047001.5,N
1623003135.4,286047007.0,Y
1623003155.2,286047002.6,P
1623003175.1,286047000.2,N
1623003176.0,286047000.2,N
1623003195.8,286046998.9,N
1623003215.7,286046999.5,N
1623003235.5,286046998.6,N
1623003255.3,286046996.8,N
1623003275.2,286046996.9,N
1623003295.9,286046997.1,N
1623003315.7,286046997.2,N
1623003335.6,286046994.9,N
1623003355.4,286046997.2,N
1623003375.3,286046997.4,N
1623003395.1,286046995.7,N
1623003396.0,286046995.7,N
1623003415.8,286046997.9,N
1623003435.7,286047000.4,N
1623003455.5,286046999.5,N
1623003475.3,286046998.2,N
1623003495.2,286046998.8,N
1623003515.0,286046999.4,N
1623003515.9,286046999.4,N
1623003535.8,286046999.8,N
1623003555.6,286047000.7,N
1623003575.4,286047000.9,N
1623003595.3,286047000.8,N
1623003615.1,286046998.9,N
1623003635.9,286046999.3,N
1623003655.7,286046998.1,N
1623003675.5,286047000.1,N
1623003695.4,286047000.1,N
1623003715.2,286046998.4,N
1623003735.0,286046997.1,N
1623003735.9,286046997.1,N
1623003755.8,286046997.7,N
1623003775.6,286046996.5,N
1623003795.5,286046995.0,Y
1623003815.3,286046996.8,P
1623003835.1,286046997.4,P
1623003855.9,286046999.1,N
1623003875.7,286046999.9,N
1623003895.5,286047001.1,N
1623003915.4,286046998.2,N
1623003935.2,286047000.9,N
1623003955.1,286047002.1,N
1623003956.0,286047002.1,N
1623003975.8,286047001.0,N
1623003995.6,286047000.8,N
1623004015.5,286047000.2,N
1623004035.3,286046999.8,N
1623004055.1,286046998.6,N
1623004075.9,286047000.5,N
1623004095.7,286047004.0,N
1623004115.6,286047000.4,N
1623004135.4,286047000.5,N
1623004155.2,286047000.9,N
1623004175.1,286046998.2,N
1623004176.0,286046998.2,N
1623004195.8,286046998.3,N
1623004215.7,286046998.1,N
1623004235.5,286046999.8,N
1623004255.3,286047002.0,N
1623004275.2,286047001.4,N
1623004295.9,286047001.0,N
1623004315.7,286046998.2,N
1623004335.6,286046998.4,N
1623004355.4,286046999.3,N
1623004375.3,286046996.7,N
1623004395.1,286046997.1,N
1623004426.0,286046998.7,E
1623004435.0,286047001.0,N
1623004435.9,286047001.0,P
1623004455.8,286047004.2,P
1623004475.6,286047000.0,N
1623004495.5,286047001.8,N
1623004515.3,286047001.7,N
1623004535.1,286047002.8,N
1623004555.9,286047000.6,N
1623004575.7,286047002.4,N
1623004595.5,286047002.3,N
1623004615.4,286047002.3,N
1623004635.2,286047002.1,N
1623004655.1,286047002.4,N
1623004656.0,286047002.4,N
1623004675.8,286047002.3,N
1623004695.6,286047000.1,N
1623004715.5,286047001.1,N
1623004735.3,286047001.2,N
1623004755.2,286046999.9,N
1623004775.9,286046998.3,N
1623004795.7,286046999.0,N
1623004815.6,286047000.9,N
1623004835.4,286046999.0,N
1623004855.2,286046998.7,N
1623004875.1,286046999.8,N
1623004876.0,286046999.8,N
1623004895.8,286046999.8,N
1623004915.7,286047000.9,N
1623004935.5,286047000.1,N
1623004955.3,286047002.4,N
1623004975.2,286047000.3,N
1623004995.0,286047001.0,N
1623004995.9,286047001.0,N
1623005015.8,286047000.7,N
1623005035.6,286047000.2,N
1623005055.4,286047000.3,N
1623005075.3,286047002.8,N
1623005095.1,286047000.4,N
1623005115.8,286047000.0,N
1623005135.7,286047004.1,Y
1623005155.5,286047001.6,P
1623005175.4,286047002.2,P
1623005195.2,286047000.3,N
1623005215.0,286047002.7,Y
1623005215.9,286047002.7,P
1623005235.8,286046999.0,N
1623005255.6,286046999.2,N
1623005275.5,286046998.4,N
1623005295.3,286047001.2,N
1623005315.1,286046996.5,N
1623005335.9,286046996.6,N
1623005355.7,286046999.5,N
1623005375.6,286046998.4,N
1623005395.4,286047001.2,N
1623005415.2,286046998.8,N
1623005435.1,286047002.6,N
1623005436.0,286047002.6,N
1623005455.8,286047003.6,N
1623005475.6,286047002.0,N
1623005495.5,286047001.7,N
1623005515.3,286046999.9,N
1623005535.2,286047000.6,N
1623005555.9,286047000.7,N
1623005575.7,286047000.2,N
1623005595.6,286046999.7,N
1623005615.4,286047000.6,N
1623005635.2,286046998.3,N
1623005655.1,286046998.5,N
1623005656.0,286046998.5,N
1623005675.8,286047003.7,N
1623005695.7,286047005.0,N
1623005715.5,286047007.2,Y
1623005735.3,286047001.4,P
1623005755.2,286047002.4,P
1623005775.0,286047000.8,N
1623005775.9,286047000.8,N
1623005795.8,286047000.4,N
1623005815.6,286047004.2,Y
1623005835.4,286047003.7,P
1623005855.3,286047005.6,P
1623005875.1,286047003.4,N
1623005895.9,286047003.7,N
1623005915.7,286047000.0,N
1623005935.5,286046999.7,N
1623005955.4,286047000.4,N
1623005975.2,286047000.4,N
1623005995.1,286046998.6,N
1623005996.0,286046998.6,N
